TimeMDT,TemperatureF,Dew PointF,Humidity,Sea Level PressureIn,VisibilityMPH,Wind Direction,Wind SpeedMPH,Gust SpeedMPH,PrecipitationIn,Events,Conditions,WindDirDegrees,DateUTC
12:15 AM,62.6,55.4,77,30.14,10.0,East,3.5,-,N/A,,Overcast,90,2013-07-15 06:15:00
12:55 AM,62.6,55.4,77,30.14,10.0,East,5.8,-,N/A,,Overcast,80,2013-07-15 06:55:00
1:15 AM,62.6,55.4,77,30.17,10.0,ENE,5.8,-,N/A,,Overcast,60,2013-07-15 07:15:00
1:35 AM,62.6,55.4,77,30.16,10.0,ENE,5.8,-,N/A,,Overcast,70,2013-07-15 07:35:00
1:55 AM,62.6,55.4,77,30.15,10.0,ENE,5.8,-,N/A,,Overcast,70,2013-07-15 07:55:00
2:15 AM,62.6,55.4,77,30.13,10.0,East,6.9,-,N/A,,Overcast,90,2013-07-15 08:15:00
2:35 AM,62.6,55.4,77,30.12,10.0,East,5.8,-,N/A,,Overcast,100,2013-07-15 08:35:00
2:55 AM,62.6,57.2,82,30.11,10.0,East,5.8,-,N/A,,Overcast,90,2013-07-15 08:55:00
3:15 AM,62.6,57.2,82,30.10,10.0,East,5.8,-,N/A,,Overcast,80,2013-07-15 09:15:00
3:35 AM,64.4,57.2,77,30.09,10.0,SE,6.9,-,N/A,,Overcast,130,2013-07-15 09:35:00
3:55 AM,66.2,59.0,78,30.10,10.0,SE,5.8,-,N/A,,Overcast,130,2013-07-15 09:55:00
4:35 AM,64.4,59.0,83,30.09,10.0,ESE,8.1,-,N/A,,Mostly Cloudy,120,2013-07-15 10:35:00
4:55 AM,64.4,60.8,88,30.08,10.0,SE,10.4,-,N/A,,Mostly Cloudy,140,2013-07-15 10:55:00
5:15 AM,64.4,60.8,88,30.07,10.0,SE,8.1,-,N/A,,Partly Cloudy,140,2013-07-15 11:15:00
5:35 AM,64.4,59.0,83,30.07,10.0,SE,5.8,-,N/A,,Clear,140,2013-07-15 11:35:00
5:55 AM,64.4,60.8,88,30.06,10.0,SE,6.9,-,N/A,,Clear,140,2013-07-15 11:55:00
6:15 AM,64.4,60.8,88,30.06,10.0,SSE,9.2,-,N/A,,Clear,150,2013-07-15 12:15:00
6:35 AM,66.2,60.8,83,30.05,10.0,SSE,8.1,-,N/A,,Clear,150,2013-07-15 12:35:00
6:55 AM,66.2,60.8,83,30.05,10.0,SE,9.2,-,N/A,,Clear,140,2013-07-15 12:55:00
7:15 AM,66.2,62.6,88,30.05,10.0,SSE,11.5,-,N/A,,Clear,150,2013-07-15 13:15:00
7:35 AM,69.8,62.6,78,30.04,10.0,SSE,10.4,-,N/A,,Clear,150,2013-07-15 13:35:00
7:55 AM,69.8,62.6,78,30.03,10.0,SSE,11.5,-,N/A,,Clear,150,2013-07-15 13:55:00
8:15 AM,71.6,62.6,73,-9999,10.0,SSE,12.7,-,N/A,,Clear,150,2013-07-15 14:15:00
8:35 AM,73.4,64.4,73,30.02,10.0,SSE,13.8,17.3,N/A,,Clear,160,2013-07-15 14:35:00
8:55 AM,73.4,64.4,73,30.01,10.0,South,16.1,20.7,N/A,,Clear,170,2013-07-15 14:55:00
9:15 AM,75.2,64.4,69,-9999,10.0,South,16.1,20.7,N/A,,Clear,170,2013-07-15 15:15:00
9:35 AM,77.0,64.4,65,-9999,10.0,SSE,15.0,23.0,N/A,,Clear,160,2013-07-15 15:35:00
9:55 AM,78.8,64.4,61,-9999,10.0,SSE,15.0,19.6,N/A,,Clear,160,2013-07-15 15:55:00
10:15 AM,78.8,64.4,61,-9999,10.0,SSE,16.1,23.0,N/A,,Clear,160,2013-07-15 16:15:00
10:35 AM,78.8,64.4,61,-9999,10.0,SE,17.3,23.0,N/A,,Clear,140,2013-07-15 16:35:00
10:55 AM,80.6,64.4,58,-9999,10.0,SSE,18.4,21.9,N/A,,Clear,150,2013-07-15 16:55:00
11:15 AM,80.6,66.2,61,-9999,10.0,SSE,16.1,27.6,N/A,,Clear,150,2013-07-15 17:15:00
11:35 AM,82.4,66.2,58,-9999,10.0,SE,17.3,25.3,N/A,,Clear,140,2013-07-15 17:35:00
11:55 AM,80.6,66.2,61,-9999,10.0,SSE,18.4,-,N/A,,Clear,160,2013-07-15 17:55:00
12:15 PM,82.4,66.2,58,-9999,10.0,SSE,15.0,24.2,N/A,,Clear,150,2013-07-15 18:15:00
12:35 PM,84.2,68.0,58,-9999,10.0,SSE,18.4,24.2,N/A,,Partly Cloudy,150,2013-07-15 18:35:00
12:55 PM,84.2,66.2,55,-9999,10.0,SE,16.1,19.6,N/A,,Partly Cloudy,140,2013-07-15 18:55:00
1:15 PM,84.2,66.2,55,-9999,10.0,SSE,19.6,23.0,N/A,,Partly Cloudy,160,2013-07-15 19:15:00
1:35 PM,82.4,66.2,58,-9999,10.0,SSE,15.0,-,N/A,,Clear,160,2013-07-15 19:35:00
1:55 PM,82.4,66.2,58,-9999,10.0,SE,13.8,-,N/A,,Clear,140,2013-07-15 19:55:00
2:35 PM,87.8,68.0,52,-9999,10.0,SSE,20.7,24.2,N/A,,Clear,150,2013-07-15 20:35:00
3:15 PM,86.0,69.8,58,-9999,10.0,SSE,12.7,18.4,N/A,,Clear,160,2013-07-15 21:15:00
3:35 PM,87.8,69.8,55,-9999,10.0,SSE,19.6,25.3,N/A,,Clear,150,2013-07-15 21:35:00
3:55 PM,87.8,68.0,52,-9999,10.0,SSE,15.0,21.9,N/A,,Clear,160,2013-07-15 21:55:00
4:15 PM,87.8,68.0,52,-9999,10.0,SSE,17.3,21.9,N/A,,Clear,160,2013-07-15 22:15:00
4:35 PM,87.8,68.0,52,-9999,10.0,SSE,15.0,20.7,N/A,,Clear,150,2013-07-15 22:35:00
5:15 PM,89.6,68.0,49,-9999,10.0,South,15.0,21.9,N/A,,Clear,170,2013-07-15 23:15:00
5:35 PM,89.6,68.0,49,-9999,10.0,South,15.0,-,N/A,,Clear,180,2013-07-15 23:35:00
5:55 PM,89.6,68.0,49,-9999,10.0,South,13.8,17.3,N/A,,Clear,170,2013-07-15 23:55:00
6:35 PM,89.6,68.0,49,-9999,10.0,South,11.5,-,N/A,,Clear,170,2013-07-16 00:35:00
6:55 PM,89.6,66.2,46,-9999,10.0,SSE,13.8,-,N/A,,Clear,150,2013-07-16 00:55:00
7:15 PM,87.8,66.2,49,-9999,10.0,SSE,11.5,-,N/A,,Clear,150,2013-07-16 01:15:00
7:35 PM,87.8,66.2,49,-9999,10.0,SSE,6.9,-,N/A,,Clear,160,2013-07-16 01:35:00
7:55 PM,86.0,66.2,51,-9999,10.0,SSE,4.6,-,N/A,,Clear,150,2013-07-16 01:55:00
8:15 PM,86.0,66.2,51,-9999,10.0,SE,5.8,-,N/A,,Clear,130,2013-07-16 02:15:00
8:35 PM,82.4,66.2,58,-9999,10.0,ESE,8.1,-,N/A,,Clear,110,2013-07-16 02:35:00
8:55 PM,80.6,66.2,61,-9999,10.0,ESE,6.9,-,N/A,,Clear,120,2013-07-16 02:55:00
9:15 PM,80.6,68.0,65,-9999,10.0,SE,4.6,-,N/A,,Clear,130,2013-07-16 03:15:00
9:35 PM,80.6,68.0,65,-9999,10.0,ESE,8.1,-,N/A,,Clear,120,2013-07-16 03:35:00
9:55 PM,80.6,68.0,65,-9999,10.0,SE,5.8,-,N/A,,Clear,140,2013-07-16 03:55:00
10:15 PM,80.6,66.2,61,-9999,10.0,SSE,9.2,-,N/A,,Clear,150,2013-07-16 04:15:00
10:35 PM,78.8,66.2,65,-9999,10.0,SSE,6.9,-,N/A,,Clear,160,2013-07-16 04:35:00
10:55 PM,78.8,66.2,65,-9999,10.0,SSE,6.9,-,N/A,,Clear,150,2013-07-16 04:55:00
11:15 PM,77.0,66.2,69,-9999,10.0,SSE,8.1,-,N/A,,Clear,160,2013-07-16 05:15:00
11:35 PM,75.2,66.2,73,-9999,10.0,South,8.1,-,N/A,,Clear,190,2013-07-16 05:35:00
11:55 PM,71.6,64.4,78,-9999,10.0,SSW,5.8,-,N/A,,Clear,210,2013-07-16 05:55:00